sat.trackr.live / text

‹ back to catalog

STARLINK-30274

NORAD 57672 · 2023-124K

PAYLOAD ACTIVE UNKNOWN

§ Identity

Operator
Country
US
Launch date
2023-08-22
Launch site
AFWTR
Launch vehicle
Mass (kg)
RCS (m²)

Purposes: comms

External: N2YO · Heavens-Above · Gunter

§ Orbital elements

Epoch: 2026-09-20T14:00:12.583008Z

Period
93.85 min
Inclination
53.1609°
Eccentricity
0.0001159
Mean motion
15.34399352 rev/d
Perigee alt
461.9 km
Apogee alt
463.5 km
Semi-major
6,840.8 km
B*
-2.1639e-5
RAAN
18.9977°
Arg perigee
72.4709°
Mean anomaly
287.6420°
Rev number
17,344

§ Raw data

STARLINK-302741 57672U 23124K   26263.58347897 -.00001107  00000+0 -21639-4 0  99942 57672  53.1609  18.9977 0001159  72.4709 287.6420 15.34399352173441

JSON: /api/v1/satellites/57672 · /tle

For live sub-satellite position, see the globe view (requires WebGL).

§ Visibility from observer

Set your observer location to see the next 7 days of passes ≥ 10°. The values pass through the URL so the page stays shareable.

No JS? Fill the form by hand. The geolocation button needs JavaScript.